Location: *
(40.7765°S, 106.5327°E)
Time: 14:51:41
(UTC+00:00)

Lacrosse 5 - Pass Details

Date: 26 May 2022
Orbit: 714 x 724 km, 57.0° (Epoch: 09 March)

Event Time Altitude Azimuth Distance (km) Brightness Sun altitude
Rises 10:09:14 0° 235° (SW) 3,148 5.7 -6.2°
Reaches altitude 10° 10:13:07 10° 206° (SSW) 2,231 4.5 -6.9°
Maximum altitude 10:15:20 13° 180° (S) 2,054 4.0 -7.3°
Drops below altitude 10° 10:17:33 10° 154° (SSE) 2,233 4.0 -7.7°
Enters shadow 10:19:10 - 139° (SE) 2,551 4.2 -7.9°
